sat.trackr.live / text

‹ back to catalog

METOP-SGA1

NORAD 65159 · 2025-172A

PAYLOAD ACTIVE UNKNOWN

§ Identity

Operator
Country
EUME
Launch date
2025-08-13
Launch site
FRGUI
Launch vehicle
Mass (kg)
RCS (m²)

Purposes: earth_obs

External: N2YO · Heavens-Above · Gunter

§ Orbital elements

Epoch: 2026-09-19T10:07:04.775520Z

Period
101.30 min
Inclination
98.7069°
Eccentricity
0.0000850
Mean motion
14.21503427 rev/d
Perigee alt
819.7 km
Apogee alt
820.9 km
Semi-major
7,198.4 km
B*
2.0776e-5
RAAN
320.4226°
Arg perigee
95.1871°
Mean anomaly
264.9403°
Rev number
5,717

§ Raw data

METOP-SGA11 65159U 25172A   26262.42158305  .00000002  00000+0  20776-4 0  99962 65159  98.7069 320.4226 0000850  95.1871 264.9403 14.21503427 57177

JSON: /api/v1/satellites/65159 · /tle

For live sub-satellite position, see the globe view (requires WebGL).

§ Visibility from observer

Set your observer location to see the next 7 days of passes ≥ 10°. The values pass through the URL so the page stays shareable.

No JS? Fill the form by hand. The geolocation button needs JavaScript.